This is the latest recevied weather packets stored in our database for station/object KE4AMH. If no packets are shown the sender has not sent any weather packets the latest 10 day(s).
| Time | Temp. | Humidity | Pressure | Rain* | Wind** | Luminosity | Snow |
|---|---|---|---|---|---|---|---|
| 1778171658 | 19.44° C | 99% | 1010.3 hPa | 0 mm | - | 806 W/m² | - |
| 1778171355 | 19.44° C | 99% | 1010.1 hPa | 0 mm | - | 234 W/m² | - |
| 1778171050 | 19.44° C | 99% | 1010 hPa | 0 mm | - | 455 W/m² | - |
| 1778170748 | 19.44° C | 99% | 1009.9 hPa | 0 mm | - | 774 W/m² | - |
| 1778170444 | 19.44° C | 99% | 1010.1 hPa | 0 mm | - | 812 W/m² | - |
| 1778170141 | 18.89° C | 99% | 1010.3 hPa | 0 mm | - | 234 W/m² | - |
| 1778169836 | 18.89° C | 99% | 1010.4 hPa | 0 mm | - | 267 W/m² | - |
| 1778169533 | 18.89° C | 99% | 1010.8 hPa | 0.51 mm | - | 180 W/m² | - |
| 1778169229 | 18.33° C | 99% | 1010.6 hPa | 0.51 mm | - | 170 W/m² | - |
| 1778168925 | 18.33° C | 99% | 1010.5 hPa | 0 mm | - | 111 W/m² | - |
| 1778168625 | 18.33° C | 99% | 1011.2 hPa | 0 mm | - | 73 W/m² | - |
| 1778168623 | 18.33° C | 99% | 1011.2 hPa | 0 mm | - | 73 W/m² | - |
| 1778168320 | 18.33° C | 99% | 1011.2 hPa | 0 mm | - | 89 W/m² | - |
| 1778168137 | 18.33° C | 99% | 1011.2 hPa | 0 mm | - | 100 W/m² | - |
| 1778168016 | 18.33° C | 99% | 1011.2 hPa | 0 mm | - | 100 W/m² | - |
| 1778167713 | 18.33° C | 99% | 1010.8 hPa | 0 mm | - | 93 W/m² | - |
| 1778167409 | 18.89° C | 99% | 1010.6 hPa | 0 mm | - | 153 W/m² | - |
| 1778167214 | 18.89° C | 99% | 1010.7 hPa | 0 mm | - | 246 W/m² | - |
| 1778167105 | 18.89° C | 99% | 1010.7 hPa | 0 mm | - | 246 W/m² | - |
| 1778166802 | 18.89° C | 99% | 1010.8 hPa | 0 mm | - | 171 W/m² | - |
| 1778166499 | 18.89° C | 99% | 1010.7 hPa | 0 mm | - | 340 W/m² | - |
| 1778166195 | 18.33° C | 99% | 1010.5 hPa | 0 mm | - | 217 W/m² | - |
| 1778165891 | 18.33° C | 99% | 1010.9 hPa | 0 mm | - | 184 W/m² | - |
| 1778165588 | 18.33° C | 99% | 1010.8 hPa | 0 mm | - | 158 W/m² | - |
| 1778165285 | 18.33° C | 99% | 1010.9 hPa | 0 mm | - | 111 W/m² | - |
* Rain latest hour (hover to see other rain measurements)
** Current wind speed in m/s (hover to see current wind gust speed)